UAL2610 KORD-KSFO

Flight info

Callsign UAL2610
Flight time N/A
Altitude 40000
Route OLINN OREOS OBENE OGALE LNK J60 HCT VOAXA Q136 RUMPS OAL INYOE DYAMD5
Aircraft B772/H-SDE2E3FGHIJ5LORVWXY/LB1D1

Departure

Time N/A
Airport Chicago O'Hare International Airport (KORD)

Arrival

Time 2026-05-03 22:09
Airport San Francisco International Airport (KSFO)
Time Latitude Longitude Altitude Speed Heading
2026-05-03 20:15 39.82513 -106.27318 39973 ft 432 kts 261°
2026-05-03 20:15 39.81423 -106.34987 39970 ft 431 kts 261°
2026-05-03 20:16 39.80329 -106.42652 39986 ft 431 kts 261°
2026-05-03 20:16 39.79229 -106.50320 39988 ft 431 kts 261°
2026-05-03 20:17 39.78200 -106.58005 39988 ft 431 kts 263°
2026-05-03 20:17 39.77390 -106.65725 39966 ft 431 kts 264°
2026-05-03 20:18 39.76593 -106.73435 39960 ft 430 kts 263°
2026-05-03 20:18 39.75769 -106.81117 39972 ft 429 kts 263°
2026-05-03 20:19 39.74929 -106.88752 40103 ft 430 kts 263°
2026-05-03 20:19 39.74073 -106.96443 40115 ft 430 kts 263°
2026-05-03 20:20 39.73213 -107.04135 40091 ft 430 kts 263°
2026-05-03 20:20 39.72348 -107.11829 40069 ft 430 kts 263°
2026-05-03 20:21 39.71478 -107.19514 40051 ft 430 kts 263°
2026-05-03 20:21 39.70604 -107.27187 40014 ft 429 kts 263°
2026-05-03 20:22 39.69726 -107.34854 39989 ft 429 kts 262°
2026-05-03 20:22 39.68842 -107.42529 39981 ft 430 kts 262°
2026-05-03 20:23 39.68104 -107.48903 40005 ft 430 kts 262°
2026-05-03 20:23 39.67207 -107.56600 40033 ft 432 kts 262°
2026-05-03 20:24 39.66303 -107.64303 40038 ft 431 kts 262°
2026-05-03 20:24 39.65402 -107.71958 40057 ft 431 kts 262°
2026-05-03 20:25 39.64496 -107.79607 40052 ft 432 kts 262°
2026-05-03 20:25 39.64038 -107.83455 39942 ft 432 kts 262°
2026-05-03 20:25 39.63578 -107.87307 39951 ft 432 kts 262°
2026-05-03 20:26 39.62658 -107.94991 39953 ft 430 kts 262°
2026-05-03 20:26 39.61730 -108.02672 39948 ft 431 kts 262°
2026-05-03 20:27 39.60797 -108.10361 39950 ft 432 kts 262°
2026-05-03 20:27 39.59863 -108.18034 39936 ft 431 kts 262°
2026-05-03 20:28 39.58928 -108.25659 39939 ft 431 kts 262°
2026-05-03 20:28 39.57978 -108.33354 39949 ft 432 kts 262°
2026-05-03 20:29 39.57020 -108.41066 39946 ft 434 kts 262°
2026-05-03 20:29 39.56061 -108.48776 39948 ft 432 kts 262°
2026-05-03 20:30 39.55099 -108.56464 39944 ft 432 kts 262°
2026-05-03 20:30 39.54137 -108.64100 39943 ft 431 kts 261°
2026-05-03 20:31 39.53167 -108.71765 39944 ft 431 kts 262°
2026-05-03 20:31 39.52190 -108.79434 39935 ft 431 kts 261°
2026-05-03 20:32 39.51211 -108.87080 39937 ft 430 kts 261°
2026-05-03 20:32 39.50225 -108.94730 39931 ft 431 kts 261°
2026-05-03 20:33 39.49236 -109.02383 39942 ft 430 kts 261°
2026-05-03 20:33 39.48242 -109.10028 39930 ft 431 kts 261°
2026-05-03 20:34 39.47251 -109.17619 39934 ft 430 kts 261°
2026-05-03 20:34 39.46247 -109.25245 39942 ft 429 kts 261°
2026-05-03 20:35 39.45241 -109.32858 39941 ft 429 kts 261°
2026-05-03 20:35 39.44230 -109.40468 39951 ft 429 kts 261°
2026-05-03 20:36 39.43212 -109.48094 39952 ft 429 kts 260°
2026-05-03 20:36 39.42191 -109.55703 39959 ft 429 kts 260°
2026-05-03 20:37 39.41165 -109.63307 39957 ft 429 kts 260°
2026-05-03 20:37 39.40141 -109.70862 39962 ft 428 kts 260°
2026-05-03 20:38 39.39106 -109.78451 39973 ft 428 kts 260°
2026-05-03 20:38 39.38071 -109.86018 39963 ft 428 kts 260°
2026-05-03 20:39 39.37028 -109.93596 39971 ft 428 kts 260°
2026-05-03 20:39 39.35992 -110.01174 39977 ft 429 kts 260°
2026-05-03 20:40 39.34981 -110.08770 39951 ft 428 kts 260°
2026-05-03 20:40 39.33966 -110.16347 39955 ft 428 kts 260°
2026-05-03 20:41 39.32946 -110.23895 39950 ft 429 kts 260°
2026-05-03 20:41 39.31915 -110.31488 39960 ft 430 kts 260°
2026-05-03 20:42 39.30873 -110.39123 39939 ft 432 kts 260°
2026-05-03 20:42 39.29824 -110.46771 39942 ft 433 kts 259°
2026-05-03 20:43 39.28769 -110.54429 39935 ft 434 kts 259°
2026-05-03 20:43 39.27707 -110.62092 39935 ft 434 kts 259°
2026-05-03 20:44 39.26639 -110.69759 39941 ft 434 kts 259°
2026-05-03 20:44 39.25566 -110.77430 39945 ft 434 kts 259°
2026-05-03 20:45 39.24496 -110.85043 39941 ft 434 kts 259°
2026-05-03 20:45 39.23413 -110.92708 39963 ft 434 kts 259°
2026-05-03 20:46 39.22324 -111.00367 39959 ft 434 kts 259°
2026-05-03 20:46 39.21231 -111.08017 39971 ft 434 kts 259°
2026-05-03 20:47 39.20135 -111.15665 39987 ft 434 kts 259°
2026-05-03 20:47 39.19034 -111.23310 40002 ft 434 kts 259°
2026-05-03 20:48 39.17926 -111.30967 39989 ft 435 kts 259°
2026-05-03 20:48 39.16821 -111.38571 39992 ft 434 kts 259°
2026-05-03 20:49 39.15704 -111.46219 39983 ft 434 kts 259°
2026-05-03 20:49 39.14585 -111.53836 39971 ft 435 kts 259°
2026-05-03 20:50 39.13455 -111.61497 39962 ft 435 kts 259°
2026-05-03 20:50 39.12321 -111.69141 39975 ft 434 kts 258°
2026-05-03 20:51 39.11182 -111.76794 39966 ft 434 kts 258°
2026-05-03 20:51 39.10042 -111.84419 39948 ft 433 kts 258°
2026-05-03 20:52 39.08898 -111.92033 39945 ft 433 kts 258°
2026-05-03 20:52 39.07750 -111.99633 39969 ft 433 kts 258°
2026-05-03 20:53 39.06597 -112.07234 39959 ft 433 kts 258°
2026-05-03 20:53 39.05440 -112.14830 39987 ft 432 kts 258°
2026-05-03 20:54 39.04279 -112.22403 40000 ft 432 kts 258°
2026-05-03 20:54 39.02545 -112.33684 40013 ft 432 kts 258°
2026-05-03 20:55 39.01372 -112.41256 40019 ft 431 kts 258°
2026-05-03 20:55 39.00191 -112.48820 40003 ft 432 kts 257°
2026-05-03 20:56 38.99599 -112.52603 39894 ft 432 kts 257°
2026-05-03 20:56 38.99005 -112.56388 39900 ft 433 kts 257°
2026-05-03 20:56 38.97809 -112.63993 39880 ft 434 kts 257°
2026-05-03 20:57 38.96609 -112.71593 39883 ft 434 kts 257°
2026-05-03 20:57 38.95401 -112.79207 39879 ft 435 kts 257°
2026-05-03 20:58 38.94186 -112.86831 39860 ft 436 kts 257°
2026-05-03 20:58 38.92974 -112.94405 39857 ft 436 kts 257°
2026-05-03 20:59 38.91749 -113.02027 39855 ft 436 kts 257°
2026-05-03 20:59 38.90516 -113.09667 39853 ft 437 kts 257°
2026-05-03 21:00 38.89688 -113.14775 39851 ft 437 kts 257°
2026-05-03 21:00 38.88036 -113.24925 39859 ft 436 kts 257°
2026-05-03 21:01 38.86789 -113.32547 39856 ft 436 kts 257°
2026-05-03 21:01 38.85538 -113.40167 39854 ft 436 kts 257°
2026-05-03 21:02 38.84281 -113.47787 39852 ft 436 kts 256°
2026-05-03 21:02 38.83028 -113.55349 39851 ft 436 kts 256°
2026-05-03 21:03 38.81761 -113.62962 39854 ft 436 kts 256°
2026-05-03 21:03 38.80491 -113.70568 39844 ft 436 kts 256°
2026-05-03 21:04 38.79218 -113.78163 39851 ft 436 kts 256°
2026-05-03 21:04 38.77937 -113.85764 39846 ft 436 kts 256°
2026-05-03 21:05 38.76653 -113.93364 39846 ft 436 kts 256°
2026-05-03 21:05 38.75365 -114.00968 39840 ft 436 kts 256°
2026-05-03 21:06 38.74081 -114.08518 39850 ft 436 kts 256°
2026-05-03 21:06 38.72793 -114.16063 39837 ft 437 kts 256°
2026-05-03 21:07 38.71494 -114.23638 39848 ft 437 kts 256°
2026-05-03 21:07 38.70184 -114.31246 39846 ft 438 kts 256°
2026-05-03 21:08 38.68866 -114.38869 39856 ft 438 kts 256°
2026-05-03 21:08 38.67544 -114.46488 39852 ft 438 kts 256°
2026-05-03 21:09 38.66217 -114.54099 39847 ft 438 kts 256°
2026-05-03 21:09 38.64893 -114.61667 39843 ft 439 kts 256°
2026-05-03 21:10 38.63554 -114.69289 39831 ft 438 kts 256°
2026-05-03 21:10 38.62214 -114.76888 39829 ft 438 kts 256°
2026-05-03 21:11 38.61092 -114.83215 39825 ft 438 kts 256°
2026-05-03 21:11 38.59739 -114.90830 39829 ft 440 kts 256°
2026-05-03 21:12 38.58374 -114.98476 39837 ft 442 kts 255°
2026-05-03 21:12 38.57001 -115.06153 39827 ft 444 kts 255°
2026-05-03 21:13 38.55611 -115.13865 39817 ft 445 kts 255°
2026-05-03 21:13 38.54215 -115.21542 39815 ft 445 kts 255°
2026-05-03 21:14 38.52822 -115.29176 39809 ft 444 kts 255°
2026-05-03 21:14 38.51419 -115.36840 39827 ft 443 kts 255°
2026-05-03 21:15 38.50013 -115.44496 39822 ft 443 kts 255°
2026-05-03 21:15 38.48732 -115.51438 39817 ft 443 kts 255°
2026-05-03 21:16 38.47317 -115.59091 39811 ft 443 kts 255°
2026-05-03 21:16 38.45911 -115.66665 39818 ft 443 kts 255°
2026-05-03 21:17 38.44482 -115.74327 39822 ft 443 kts 255°
2026-05-03 21:17 38.43067 -115.81884 39827 ft 443 kts 255°
2026-05-03 21:18 38.41631 -115.89523 39817 ft 443 kts 255°
2026-05-03 21:18 38.40191 -115.97159 39828 ft 443 kts 255°
2026-05-03 21:19 38.38744 -116.04797 39834 ft 444 kts 255°
2026-05-03 21:19 38.37295 -116.12425 39829 ft 445 kts 255°
2026-05-03 21:20 38.35830 -116.20100 39849 ft 445 kts 255°
2026-05-03 21:20 38.34392 -116.27613 39853 ft 445 kts 255°
2026-05-03 21:21 38.32907 -116.35269 39856 ft 445 kts 253°
2026-05-03 21:21 38.31227 -116.42839 39871 ft 444 kts 252°
2026-05-03 21:22 38.29483 -116.50394 39872 ft 445 kts 252°
2026-05-03 21:22 38.27756 -116.57955 39864 ft 445 kts 252°
2026-05-03 21:23 38.26046 -116.65498 39874 ft 444 kts 252°
2026-05-03 21:23 38.24330 -116.73062 39887 ft 444 kts 252°
2026-05-03 21:24 38.22610 -116.80616 39909 ft 444 kts 252°
2026-05-03 21:24 38.20886 -116.88162 39932 ft 445 kts 252°
2026-05-03 21:25 38.19152 -116.95723 39962 ft 446 kts 252°
2026-05-03 21:25 38.17412 -117.03290 39977 ft 446 kts 252°
2026-05-03 21:26 38.15664 -117.10861 39981 ft 446 kts 252°
2026-05-03 21:26 38.13916 -117.18419 39979 ft 446 kts 252°
2026-05-03 21:27 38.13040 -117.22197 39861 ft 446 kts 252°
2026-05-03 21:27 38.12161 -117.25978 39857 ft 446 kts 252°
2026-05-03 21:27 38.10422 -117.33483 39849 ft 446 kts 252°
2026-05-03 21:28 38.08681 -117.41033 39834 ft 445 kts 252°
2026-05-03 21:28 38.06948 -117.48519 39838 ft 445 kts 252°
2026-05-03 21:29 38.05199 -117.56045 39834 ft 445 kts 252°
2026-05-03 21:29 38.03443 -117.63575 39825 ft 445 kts 252°
2026-05-03 21:30 38.01682 -117.71109 39825 ft 445 kts 252°
2026-05-03 21:30 38.00100 -117.78699 39830 ft 446 kts 258°
2026-05-03 21:31 37.99271 -117.86516 39823 ft 448 kts 261°
2026-05-03 21:31 37.98596 -117.93239 39827 ft 448 kts 261°
2026-05-03 21:32 37.98223 -117.96874 39827 ft 448 kts 260°
2026-05-03 21:33 37.97733 -118.01588 39823 ft 448 kts 260°
2026-05-03 21:33 37.96917 -118.09321 39829 ft 448 kts 260°
2026-05-03 21:34 37.96090 -118.17100 39833 ft 449 kts 260°
2026-05-03 21:34 37.95247 -118.24953 39825 ft 450 kts 260°
2026-05-03 21:35 37.94402 -118.32804 39832 ft 450 kts 260°
2026-05-03 21:35 37.93551 -118.40668 39832 ft 450 kts 260°
2026-05-03 21:36 37.92693 -118.48535 39834 ft 451 kts 260°
2026-05-03 21:36 37.91830 -118.56399 39841 ft 451 kts 260°
2026-05-03 21:37 37.90960 -118.64275 39870 ft 452 kts 260°
2026-05-03 21:37 37.90089 -118.72119 39912 ft 453 kts 260°
2026-05-03 21:38 37.89204 -118.80016 39939 ft 453 kts 260°
2026-05-03 21:38 37.88305 -118.87922 39941 ft 454 kts 260°
2026-05-03 21:39 37.87400 -118.95828 39962 ft 454 kts 260°
2026-05-03 21:39 37.86494 -119.03708 39965 ft 454 kts 259°
2026-05-03 21:40 37.85580 -119.11622 39919 ft 454 kts 259°
2026-05-03 21:40 37.84661 -119.19520 39956 ft 455 kts 259°
2026-05-03 21:41 37.83750 -119.27327 39483 ft 447 kts 259°
2026-05-03 21:41 37.83297 -119.31184 39103 ft 441 kts 259°
2026-05-03 21:41 37.82848 -119.35007 38680 ft 437 kts 259°
2026-05-03 21:42 37.82406 -119.38750 38217 ft 433 kts 259°
2026-05-03 21:42 37.81965 -119.42471 37776 ft 429 kts 259°
2026-05-03 21:42 37.81524 -119.46180 37381 ft 424 kts 259°
2026-05-03 21:42 37.81091 -119.49812 36988 ft 420 kts 259°
2026-05-03 21:43 37.80657 -119.53443 36608 ft 415 kts 259°
2026-05-03 21:43 37.80227 -119.57037 36233 ft 412 kts 259°
2026-05-03 21:43 37.79799 -119.60600 35849 ft 408 kts 258°
2026-05-03 21:43 37.79375 -119.64126 35466 ft 405 kts 258°
2026-05-03 21:44 37.78951 -119.67636 35077 ft 402 kts 258°
2026-05-03 21:44 37.78529 -119.71124 34693 ft 400 kts 258°
2026-05-03 21:44 37.78108 -119.74593 34293 ft 399 kts 258°
2026-05-03 21:44 37.77687 -119.78049 33898 ft 397 kts 258°
2026-05-03 21:45 37.77268 -119.81495 33469 ft 395 kts 257°
2026-05-03 21:45 37.76851 -119.84911 33064 ft 392 kts 259°
2026-05-03 21:45 37.76436 -119.88271 32654 ft 391 kts 259°
2026-05-03 21:45 37.76019 -119.91653 32307 ft 389 kts 259°
2026-05-03 21:46 37.75599 -119.95060 31946 ft 397 kts 259°
2026-05-03 21:46 37.75167 -119.98578 31595 ft 415 kts 259°
2026-05-03 21:46 37.74707 -120.02241 31213 ft 425 kts 259°
2026-05-03 21:46 37.74249 -120.05918 30803 ft 423 kts 260°
2026-05-03 21:47 37.73790 -120.09589 30437 ft 422 kts 260°
2026-05-03 21:47 37.73334 -120.13242 30079 ft 421 kts 260°
2026-05-03 21:47 37.72888 -120.16888 29642 ft 420 kts 259°
2026-05-03 21:47 37.72432 -120.20530 29198 ft 420 kts 259°
2026-05-03 21:48 37.71973 -120.24169 28763 ft 419 kts 259°
2026-05-03 21:48 37.71515 -120.27802 28343 ft 418 kts 259°
2026-05-03 21:48 37.71059 -120.31420 27914 ft 417 kts 259°
2026-05-03 21:48 37.70603 -120.35033 27490 ft 416 kts 259°
2026-05-03 21:49 37.70145 -120.38639 27080 ft 415 kts 259°
2026-05-03 21:49 37.69694 -120.42239 26655 ft 416 kts 259°
2026-05-03 21:49 37.69268 -120.45851 26165 ft 417 kts 260°
2026-05-03 21:49 37.68850 -120.49485 25680 ft 418 kts 260°
2026-05-03 21:50 37.68434 -120.53118 25210 ft 418 kts 259°
2026-05-03 21:50 37.68014 -120.56753 24730 ft 419 kts 259°
2026-05-03 21:50 37.67589 -120.60398 24253 ft 420 kts 259°
2026-05-03 21:50 37.67160 -120.64053 23765 ft 421 kts 259°
2026-05-03 21:51 37.66730 -120.67704 23231 ft 421 kts 259°
2026-05-03 21:51 37.66305 -120.71311 22696 ft 421 kts 259°
2026-05-03 21:51 37.65873 -120.74953 22191 ft 419 kts 259°
2026-05-03 21:51 37.65439 -120.78590 21700 ft 417 kts 259°
2026-05-03 21:52 37.65004 -120.82205 21223 ft 415 kts 259°
2026-05-03 21:52 37.64570 -120.85800 20750 ft 413 kts 258°
2026-05-03 21:52 37.64139 -120.89371 20336 ft 410 kts 258°
2026-05-03 21:52 37.63710 -120.92918 19903 ft 407 kts 258°
2026-05-03 21:53 37.63282 -120.96435 19481 ft 405 kts 258°
2026-05-03 21:53 37.62833 -120.99919 19202 ft 397 kts 257°
2026-05-03 21:53 37.62378 -121.03317 18766 ft 393 kts 257°
2026-05-03 21:53 37.61912 -121.06746 18260 ft 393 kts 257°
2026-05-03 21:54 37.61463 -121.10079 18170 ft 380 kts 257°
2026-05-03 21:54 37.61030 -121.13310 18050 ft 363 kts 257°
2026-05-03 21:54 37.60626 -121.16314 17801 ft 343 kts 257°
2026-05-03 21:54 37.60238 -121.19200 17340 ft 330 kts 256°
2026-05-03 21:55 37.59862 -121.21983 16743 ft 324 kts 256°
2026-05-03 21:55 37.59486 -121.24761 16072 ft 321 kts 256°
2026-05-03 21:55 37.59119 -121.27519 15394 ft 318 kts 257°
2026-05-03 21:55 37.58796 -121.30261 14817 ft 313 kts 258°
2026-05-03 21:56 37.58493 -121.32954 14465 ft 311 kts 258°
2026-05-03 21:56 37.58194 -121.35598 14112 ft 313 kts 258°
2026-05-03 21:56 37.57886 -121.38309 13745 ft 312 kts 258°
2026-05-03 21:56 37.57577 -121.41015 13342 ft 310 kts 258°
2026-05-03 21:57 37.57269 -121.43704 12964 ft 309 kts 258°
2026-05-03 21:57 37.56960 -121.46378 12608 ft 307 kts 258°
2026-05-03 21:57 37.56650 -121.49031 12233 ft 305 kts 258°
2026-05-03 21:57 37.56343 -121.51672 11881 ft 303 kts 258°
2026-05-03 21:58 37.56039 -121.54281 11561 ft 302 kts 258°
2026-05-03 21:58 37.55837 -121.56012 11324 ft 301 kts 257°
2026-05-03 21:58 37.55531 -121.58625 10954 ft 301 kts 257°
2026-05-03 21:58 37.55225 -121.61230 10627 ft 300 kts 257°
2026-05-03 21:59 37.54860 -121.63804 10290 ft 297 kts 251°
2026-05-03 21:59 37.54278 -121.66297 9953 ft 296 kts 248°
2026-05-03 21:59 37.53641 -121.68757 9568 ft 295 kts 247°
2026-05-03 21:59 37.53018 -121.71205 9209 ft 293 kts 248°
2026-05-03 22:00 37.52425 -121.73638 8873 ft 288 kts 249°
2026-05-03 22:00 37.51841 -121.76042 8511 ft 286 kts 249°
2026-05-03 22:00 37.51268 -121.78415 8243 ft 282 kts 250°
2026-05-03 22:00 37.50731 -121.80666 8048 ft 279 kts 249°
2026-05-03 22:01 37.50167 -121.83008 7682 ft 279 kts 249°
2026-05-03 22:01 37.49611 -121.85333 7345 ft 280 kts 250°
2026-05-03 22:01 37.49104 -121.87673 6994 ft 276 kts 258°
2026-05-03 22:01 37.49090 -121.90025 6706 ft 274 kts 272°
2026-05-03 22:02 37.49271 -121.92412 6421 ft 274 kts 273°
2026-05-03 22:02 37.49452 -121.94834 6091 ft 274 kts 273°
2026-05-03 22:02 37.49618 -121.97187 5780 ft 273 kts 272°
2026-05-03 22:02 37.49769 -121.99572 5473 ft 273 kts 271°
2026-05-03 22:03 37.49904 -122.01832 5173 ft 261 kts 272°
2026-05-03 22:03 37.50037 -122.04066 4890 ft 253 kts 271°
2026-05-03 22:03 37.50161 -122.06269 4615 ft 254 kts 271°
2026-05-03 22:03 37.50288 -122.08464 4321 ft 253 kts 271°
2026-05-03 22:04 37.50643 -122.10581 4011 ft 250 kts 294°
2026-05-03 22:04 37.51536 -122.12397 3752 ft 240 kts 302°
2026-05-03 22:04 37.52348 -122.14166 3472 ft 226 kts 295°
2026-05-03 22:04 37.53054 -122.15896 3211 ft 220 kts 294°
2026-05-03 22:05 37.53752 -122.17583 2973 ft 215 kts 295°
2026-05-03 22:05 37.54443 -122.19239 2737 ft 211 kts 295°
2026-05-03 22:05 37.55114 -122.20836 2558 ft 204 kts 295°
2026-05-03 22:05 37.55754 -122.22355 2306 ft 187 kts 296°
2026-05-03 22:06 37.56330 -122.23724 2055 ft 169 kts 296°
2026-05-03 22:06 37.56863 -122.25007 1729 ft 163 kts 294°
2026-05-03 22:06 37.57336 -122.26301 1495 ft 163 kts 294°
2026-05-03 22:06 37.57912 -122.27544 1275 ft 164 kts 298°
2026-05-03 22:07 37.58482 -122.28718 1034 ft 148 kts 294°
2026-05-03 22:07 37.58858 -122.29854 788 ft 146 kts 287°
2026-05-03 22:07 37.59387 -122.31024 754 ft 148 kts 298°
2026-05-03 22:07 37.59854 -122.32057 635 ft 130 kts 291°
2026-05-03 22:08 37.60283 -122.33161 501 ft 155 kts 294°
2026-05-03 22:08 37.60782 -122.34337 303 ft 142 kts 295°
2026-05-03 22:08 37.61226 -122.35404 134 ft 137 kts 293°
2026-05-03 22:08 37.61648 -122.36422 28 ft 120 kts 296°
2026-05-03 22:09 37.61940 -122.37109 26 ft 68 kts 298°
2026-05-03 22:09 37.62151 -122.37611 26 ft 60 kts 296°
2026-05-03 22:09 37.62234 -122.37994 26 ft 36 kts 266°
2026-05-03 22:10 37.62118 -122.38240 25 ft 11 kts 207°
2026-05-03 22:10 37.62055 -122.38283 26 ft 5 kts 206°
2026-05-03 22:10 37.62026 -122.38305 26 ft 5 kts 225°
2026-05-03 22:10 37.62028 -122.38347 26 ft 5 kts 292°
2026-05-03 22:11 37.62050 -122.38406 26 ft 8 kts 296°
2026-05-03 22:11 37.62074 -122.38466 26 ft 8 kts 299°
2026-05-03 22:11 37.62102 -122.38526 26 ft 8 kts 300°
2026-05-03 22:11 37.62137 -122.38609 26 ft 12 kts 297°
2026-05-03 22:12 37.62174 -122.38699 25 ft 10 kts 297°
2026-05-03 22:12 37.62195 -122.38765 26 ft 7 kts 278°
2026-05-03 22:12 37.62170 -122.38807 26 ft 6 kts 209°
2026-05-03 22:12 37.62136 -122.38828 25 ft 5 kts 206°
2026-05-03 22:13 37.62114 -122.38842 26 ft 2 kts 207°
2026-05-03 22:13 37.62108 -122.38846 26 ft 0 kts 207°